This demonstration page uses our WeatherBlox Daily Observations layout. Learn more.

Left ArrowRight Arrow

44.8408, -93.29828

Hourly Observations for December 3, 2019

Temp ( °F °C ) Dew Point ( °F °C ) Humidity (%) Winds ( mph kmh ) Pressure ( in mb ) Visibility ( mi km ) Precip ( " mm )
12:53 am 00:53 Mostly Clear 23 -5 17 -8.3 78 78 SE 6 9 29.80 1009 10 16 0.00 0.00
1:53 am 01:53 Mostly Clear 21 -6.1 17 -8.3 85 85 SSE 3 6 29.78 1008 10 16 0.00 0.00
2:53 am 02:53 Clear 22 -5.6 17 -8.3 82 82 SW 3 6 29.77 1008 10 16 0.00 0.00
3:53 am 03:53 Clear 23 -5 19 -7.2 85 85 SW 5 7 29.75 1007 10 16 0.00 0.00
4:53 am 04:53 Clear 22 -5.6 19 -7.2 89 89 WSW 3 6 29.72 1007 10 16 0.00 0.00
5:53 am 05:53 Clear 23 -5 19 -7.2 85 85 SW 6 9 29.72 1006 9 14 0.00 0.00
6:53 am 06:53 Partly Cloudy 22 -5.6 18 -7.8 85 85 SW 6 9 29.72 1006 10 16 0.00 0.00
7:53 am 07:53 Mostly Cloudy 24 -4.4 19 -7.2 81 81 WSW 6 9 29.71 1006 10 16 0.00 0.00
8:53 am 08:53 Mostly Cloudy 25 -3.9 20 -6.7 81 81 W 5 7 29.72 1006 10 16 0.00 0.00
9:53 am 09:53 Partly Cloudy 28 -2.2 22 -5.6 78 78 W 6 9 29.71 1006 10 16 0.00 0.00
10:53 am 10:53 Partly Cloudy 31 -0.6 23 -5 72 72 W 10 17 29.71 1006 10 16 0.00 0.00
11:53 am 11:53 Mostly Sunny 35 1.7 25 -3.9 67 67 W 6 9 29.69 1005 10 16 0.00 0.00
12:53 pm 12:53 Mostly Sunny 37 2.8 25 -3.9 62 62 W 12 19 29.67 1005 10 16 0.00 0.00
1:53 pm 13:53 Mostly Sunny 37 2.8 25 -3.9 62 62 W 10 17 29.66 1004 10 16 0.00 0.00
2:53 pm 14:53 Mostly Sunny 38 3.3 26 -3.3 62 62 WSW 8 13 29.65 1004 10 16 0.00 0.00
3:53 pm 15:53 Partly Cloudy 36 2.2 27 -2.8 70 70 W 10 17 29.66 1005 10 16 0.00 0.00
4:53 pm 16:53 Partly Cloudy 34 1.1 27 -2.8 76 76 W 10 17 29.68 1005 10 16 0.00 0.00
5:53 pm 17:53 Partly Cloudy 33 0.6 26 -3.3 75 75 W 9 15 29.67 1005 10 16 0.00 0.00
6:53 pm 18:53 Partly Cloudy 33 0.6 25 -3.9 72 72 W 8 13 29.66 1005 10 16 0.00 0.00
7:53 pm 19:53 Partly Cloudy 32 0 24 -4.4 73 73 W 10 17 29.66 1005 10 16 0.00 0.00
8:53 pm 20:53 Partly Cloudy 32 0 23 -5 69 69 W 9 15 29.65 1004 10 16 0.00 0.00
9:53 pm 21:53 Partly Cloudy 32 0 23 -5 69 69 W 12 19 29.66 1004 10 16 0.00 0.00
10:53 pm 22:53 Mostly Clear 31 -0.6 23 -5 72 72 W 12 19 29.66 1004 10 16 0.00 0.00
11:53 pm 23:53 Partly Cloudy 30 -1.1 23 -5 75 75 WNW 9 15 29.66 1005 10 16 0.00 0.00

Powered by AerisWeather